Powrót do katalogu

ICEYE-X61

AktywnyNaukaSSO
NORAD 66754·PAYLOAD·🇫🇮 Finland

Wystrzelony Nov 28, 2025 z Vandenberg Space Force Base

Loading…

Następne Przeloty (najbliższe 24 godziny)

TLE

ŚwieżeSource: Space-Track

Epoka: Sep 14, 2026, 04:09 UTC

1 66754U 25276CS  26257.17335167  .00002397  00000-0  11776-3 0  9991
2 66754  97.4128 328.9980 0004165  46.6051 313.5529 15.19006555 43921

Śledź ICEYE-X61 w czasie rzeczywistym z AllMySat

Download on the App Store